Topeka, KS

2:39 AM CST on February 09, 2016 (GMT -0600)
Forbes

Weather History for KFOE - December, 2013

Change the Weather History Date:

Wednesday, December 18, 2013

  Actual Average Record
Temperature  
Mean Temperature 47 °F -  
Max Temperature 66 °F 41 °F 66 °F (2013)
Min Temperature 28 °F 21 °F -11 °F (1983)
Degree Days  
Heating Degree Days 18    
Moisture  
Dew Point 28 °F    
Average Humidity 50    
Maximum Humidity 70    
Minimum Humidity 25    
Precipitation  
Precipitation 0.00 in - - ()
Sea Level Pressure  
Sea Level Pressure 29.94 in    
Wind  
Wind Speed 13 mph (South)    
Max Wind Speed 29 mph    
Max Gust Speed 38 mph    
Visibility 10 miles    
Events      
Averages and records for this station are not official NWS values.
T = Trace of Precipitation, MM = Missing Value Source: NWS Daily Summary

Daily Weather History Graph

Daily Weather History Graph

Search for Another Location

Airport or City:

Trip Planner

Search our weather history database for the weather conditions in past years. The results will help you decide how hot, cold, wet, or windy it might be!

Date:

Astronomy

Dec. 18, 2013 Rise Set
Actual Time 7:36 AM CST 5:02 PM CST
Civil Twilight 7:06 AM CST 5:32 PM CST
Nautical Twilight 6:32 AM CST 6:06 PM CST
Astronomical Twilight 6:00 AM CST 6:38 PM CST
Moon 6:34 PM CST (12/18) 8:17 AM CST (12/18)
Length of Visible Light 10h 26m
Length of Day
9h 26m
Full, 98% of the Moon is Illuminated
Dec 18
Full
Dec 25
Last Quarter
Jan 1
New
Jan 7
First Quarter
Jan 15
Full

Hourly Weather History & Observations

Time (CST) Temp. Windchill Dew Point Humidity Pressure Visibility Wind Dir Wind Speed Gust Speed Precip Events Conditions
12:53 AM 28.9 °F 21.1 °F 19.9 °F 69% 30.21 in 10.0 mi South 8.1 mph - N/A   Clear
1:53 AM 28.9 °F 22.8 °F 19.0 °F 67% 30.17 in 10.0 mi SE 5.8 mph - N/A   Clear
2:53 AM 30.9 °F 24.3 °F 21.9 °F 69% 30.15 in 10.0 mi South 6.9 mph - N/A   Clear
3:53 AM 34.0 °F 25.0 °F 23.0 °F 64% 30.12 in 10.0 mi South 12.7 mph - N/A   Clear
4:53 AM 34.0 °F 26.0 °F 24.1 °F 67% 30.11 in 10.0 mi South 10.4 mph - N/A   Clear
5:53 AM 35.1 °F 25.9 °F 26.1 °F 70% 30.08 in 10.0 mi South 13.8 mph - N/A   Clear
6:53 AM 35.1 °F 27.4 °F 25.0 °F 67% 30.06 in 10.0 mi South 10.4 mph - N/A   Clear
7:53 AM 37.0 °F 28.1 °F 25.0 °F 62% 30.04 in 10.0 mi SSW 15.0 mph - N/A   Clear
8:53 AM 41.0 °F 32.8 °F 27.0 °F 57% 30.03 in 10.0 mi South 16.1 mph - N/A   Clear
9:53 AM 48.0 °F - 28.0 °F 46% 30.00 in 10.0 mi SSW 17.3 mph 26.5 mph N/A   Clear
10:53 AM 51.1 °F - 28.9 °F 43% 29.97 in 10.0 mi SSW 20.7 mph 34.5 mph N/A   Clear
11:53 AM 57.0 °F - 30.0 °F 36% 29.93 in 10.0 mi SSW 21.9 mph 32.2 mph N/A   Clear
12:53 PM 63.0 °F - 30.9 °F 30% 29.88 in 10.0 mi SSW 18.4 mph 29.9 mph N/A   Clear
1:53 PM 66.9 °F - 30.0 °F 25% 29.83 in 10.0 mi SSW 28.8 mph 38.0 mph N/A   Clear
2:53 PM 66.9 °F - 30.0 °F 25% 29.82 in 10.0 mi SSW 23.0 mph 33.4 mph N/A   Clear
3:53 PM 64.0 °F - 30.0 °F 28% 29.81 in 10.0 mi SSW 20.7 mph 27.6 mph N/A   Clear
4:53 PM 59.0 °F - 30.9 °F 35% 29.79 in 10.0 mi South 13.8 mph - N/A   Clear
5:53 PM 55.0 °F - 30.9 °F 40% 29.79 in 10.0 mi South 10.4 mph - N/A   Clear
6:53 PM 54.0 °F - 30.9 °F 41% 29.79 in 10.0 mi South 10.4 mph - N/A   Clear
7:53 PM 52.0 °F - 33.1 °F 49% 29.80 in 10.0 mi South 11.5 mph - N/A   Clear
8:53 PM 52.0 °F - 34.0 °F 50% 29.79 in 10.0 mi South 13.8 mph - N/A   Clear
9:53 PM 50.0 °F - 33.1 °F 52% 29.79 in 10.0 mi South 9.2 mph - N/A   Clear
10:53 PM 50.0 °F - 34.0 °F 54% 29.78 in 10.0 mi South 9.2 mph - N/A   Clear
11:53 PM 51.1 °F - 35.1 °F 54% 29.76 in 10.0 mi South 16.1 mph - N/A   Clear